Showing default

IRIDIUM 117, 42808

Orbit data source: Space-Track

IRIDIUM 117, 42808 is a payload satellite owned by Iridium (US) in LEO that was launched on Sun, 25 Jun 2017 UTC via an FALCON 9 launch vehicle from the Air Force Western Test Range (AFWTR). Payloads include a variety of satellites, spacecraft, and rockets equipped with specific instruments for various scientific and technological missions. These include communications satellites like Starlink; space stations such as the ISS; scientific satellites like the Hubble; Earth observation satellites from companies like Planet Labs, Umbra, and HawkEye 360; GPS; miniature CubeSats for education and research; and military/defense satellites.

Loading next visibility...
IRIDIUM 117 details
Identifier
42808, 2017-039F
Orbit
LEO
Last TLE update14 hours ago
Origin
Flag of USIridium (US)
ManufacturerOATK SSG Gilbert
MissionOperational Commercial Communications
Bus & MotorELITEBUS, Unknown motor
Mass860 kg wet, 700 kg dry
Launch date (UTC)
2017-06-25 (8 years ago)
Launch vehicle
FALCON 9
Launch site
Air Force Western Test Range (AFWTR)
Object type
Payload
Rocket body
Debris
Shape & HBRTrap Box + 2 Pan, 9.4 m
Radar Cross Section14.423 m², Large (>1 m²)

Expand to show TLE details & history

TLE from 14 hours ago
0 IRIDIUM 117
1 42808U 17039F   24361.13822439  .00000816  00000-0  28420-3 0  9994
2 42808  86.3977 218.4100 0001661  86.1821 273.9565 14.34218095392851
Epoch: 2024-12-26T03:19Z
Definitive object data (Epoch: 2024-12-26T03:19:02.587Z)
Latitude0.00002°
Longitude73.5273°
Altitude780.635 km
Speed7.464 km/s
True Right ascension14h 33m 38s
True Declination0° 00' 00"
Sunlit
Object was in daylight at TLE epoch
Visualization TLE readout
Latitude30.85683°
Longitude-108.86211°
Altitude781.181 km
Speed7.466 km/s
Apparent Right ascension03h 27m 02s
Apparent Declination-2° 16' 25"
Sunlit
Object is in full shadow
Visualization observer readout
Local Sidereal Time16:46:40
Azimuth30.732° NE
Elevation-48.247°
Doppler factor1
Orbital elements
Apogee altitude775.819 km
Perigee altitude773.442 km
Semi-major axis7,152.767 km
Eccentricity0.0001661
Inclination86.3977°
RAAN218.41°
Arg. of periapsis86.1821°
True anomaly273.93751°
Mean anomaly273.9565°
Eccentric anomaly273.94701°
Mean motion3.58783 °/min
BSTAR0.0002842
Orbital period100.34 mins
Loading maneuver chart data...
Loading historical data...
Loading historical data...
Loading historical data...
Loading historical data...
Loading historical data...
Loading historical data...
Loading historical data...

IRIDIUM 117 Visibility forecast

Observer location: undefined°, undefined

Span
Click to sort rows by Start time (UTC) header in descending order
Start Az.
Max El. time (UTC)
Max El. Az.
Max El.
End time (UTC)
End Az.
6 mins2024-12-27 01:40:21.030Z35.067° NE2024-12-27 01:43:21.030Z72.43° E17.739°2024-12-27 01:46:21.030Z112.579° SE
8 mins2024-12-27 03:21:21.030Z337.405° NNW2024-12-27 03:24:21.030Z281.516° WNW36.205°2024-12-27 03:29:21.030Z200.926° SSW
8 mins2024-12-27 14:36:21.030Z147.019° SSE2024-12-27 14:40:21.030Z76.242° E31.901°2024-12-27 14:44:21.030Z20.528° NNE
6 mins2024-12-27 16:18:21.030Z245.018° WSW2024-12-27 16:21:21.030Z290.618° WNW20.698°2024-12-27 16:24:21.030Z329.159° NNW
|